This is the latest recevied weather packets stored in our database for station/object W4KAB. If no packets are shown the sender has not sent any weather packets the latest 10 day(s).
| Time | Temp. | Humidity | Pressure | Rain* | Wind** | Luminosity | Snow |
|---|---|---|---|---|---|---|---|
| 1777575723 | 21.11° C | 40% | 1012 hPa | 0 mm | - | 100 W/m² | - |
| 1777575419 | 21.11° C | 47% | 1011.8 hPa | 0 mm | - | 176 W/m² | - |
| 1777575115 | 20.56° C | 42% | 1011.9 hPa | 0 mm | - | 134 W/m² | - |
| 1777574810 | 21.11° C | 44% | 1012.2 hPa | 0 mm | - | 810 W/m² | - |
| 1777574509 | 21.67° C | 41% | 1012 hPa | 0 mm | - | 95 W/m² | - |
| 1777574204 | 20.56° C | 43% | 1012.1 hPa | 0 mm | - | 468 W/m² | - |
| 1777573900 | 20.56° C | 46% | 1011.8 hPa | 0 mm | - | 244 W/m² | - |
| 1777573599 | 21.67° C | 44% | 1011.9 hPa | 0 mm | - | 88 W/m² | - |
| 1777573296 | 21.67° C | 46% | 1012 hPa | 0 mm | - | 901 W/m² | - |
| 1777572992 | 22.22° C | 43% | 1012.1 hPa | 0 mm | - | 141 W/m² | - |
| 1777572688 | 22.22° C | 42% | 1011.9 hPa | 0 mm | - | 828 W/m² | - |
| 1777572388 | 21.67° C | 45% | 1012.1 hPa | 0 mm | - | 168 W/m² | - |
| 1777572085 | 21.67° C | 47% | 1012.1 hPa | 0 mm | - | 218 W/m² | - |
| 1777571785 | 22.22° C | 44% | 1011.8 hPa | 0 mm | - | 110 W/m² | - |
| 1777571482 | 22.78° C | 43% | 1012 hPa | 0 mm | - | 900 W/m² | - |
| 1777571179 | 22.78° C | 48% | 1011.9 hPa | 0 mm | - | 266 W/m² | - |
| 1777570875 | 23.33° C | 46% | 1012.1 hPa | 0 mm | - | 849 W/m² | - |
| 1777570570 | 22.78° C | 49% | 1012.1 hPa | 0 mm | - | 785 W/m² | - |
| 1777570268 | 22.78° C | 46% | 1012 hPa | 0 mm | - | 776 W/m² | - |
| 1777569963 | 22.22° C | 47% | 1011.9 hPa | 0 mm | - | 815 W/m² | - |
| 1777569659 | 22.22° C | 52% | 1012 hPa | 0 mm | - | 742 W/m² | - |
| 1777569355 | 21.11° C | 50% | 1012.2 hPa | 0 mm | - | 747 W/m² | - |
| 1777569051 | 20.56° C | 52% | 1012 hPa | 0 mm | - | 773 W/m² | - |
| 1777568748 | 21.67° C | 49% | 1012.3 hPa | 0 mm | - | 360 W/m² | - |
| 1777568446 | 22.22° C | 47% | 1012.3 hPa | 0 mm | - | 826 W/m² | - |
* Rain latest hour (hover to see other rain measurements)
** Current wind speed in m/s (hover to see current wind gust speed)